When you browse on this site, cookies collect data to enhance your experience and personalize the content and advertising you see.
Visit our Privacy Policy to learn more. By continuing to use the site, you agree to this use of cookies and data.

Météo par heure à Buenos Aires

Ce jour, 5 Juillet, Dimanche

Heure Température Précipitation Vent Pression Humidité
00:00 +25°C° 0.7 mm 1 m/s 716 mmHg 86%
01:00 +22°C° 0.7 mm 0 m/s 716 mmHg 89%
02:00 +22°C° 0.7 mm 0 m/s 716 mmHg 92%
03:00 +22°C° 0.3 mm 0 m/s 715 mmHg 92%
04:00 +21°C° 0.3 mm 0 m/s 715 mmHg 92%
05:00 +21°C° 0.3 mm 0 m/s 715 mmHg 93%
06:00 +23°C° 0.1 mm 0 m/s 716 mmHg 88%
07:00 +24°C° 0.1 mm 0 m/s 716 mmHg 83%
08:00 +26°C° 0.1 mm 0 m/s 717 mmHg 78%
09:00 +30°C° 0.2 mm 1 m/s 717 mmHg 71%
10:00 +32°C° 0.2 mm 1 m/s 717 mmHg 65%
11:00 +33°C° 0.2 mm 1 m/s 716 mmHg 58%
12:00 +34°C° 0.2 mm 1 m/s 716 mmHg 54%
13:00 +35°C° 0.2 mm 1 m/s 715 mmHg 51%
14:00 +36°C° 0.2 mm 1 m/s 715 mmHg 47%
15:00 +35°C° 0.5 mm 1 m/s 714 mmHg 50%
16:00 +32°C° 0.5 mm 0 m/s 714 mmHg 53%
17:00 +31°C° 0.5 mm 0 m/s 713 mmHg 56%
18:00 +31°C° 0.3 mm 1 m/s 714 mmHg 61%
19:00 +29°C° 0.3 mm 1 m/s 714 mmHg 66%
20:00 +28°C° 0.3 mm 1 m/s 715 mmHg 71%
21:00 +27°C° 1.2 mm 1 m/s 715 mmHg 77%
22:00 +26°C° 1.2 mm 1 m/s 715 mmHg 83%
23:00 +25°C° 1.2 mm 1 m/s 715 mmHg 89%

Demain, 6 Juillet, Lundi

Heure Température Précipitation Vent Pression Humidité
00:00 +25°C° 1.1 mm 1 m/s 715 mmHg 90%
01:00 +24°C° 1.1 mm 1 m/s 715 mmHg 90%
02:00 +24°C° 1.1 mm 1 m/s 715 mmHg 91%
03:00 +24°C° 0.1 mm 1 m/s 715 mmHg 91%
04:00 +22°C° 0.1 mm 0 m/s 715 mmHg 91%
05:00 +22°C° 0.1 mm 0 m/s 715 mmHg 91%
06:00 +23°C° 0 mm 0 m/s 715 mmHg 86%
07:00 +25°C° 0 mm 0 m/s 716 mmHg 81%
08:00 +26°C° 0 mm 0 m/s 716 mmHg 75%
09:00 +28°C° 0.1 mm 0 m/s 716 mmHg 68%
10:00 +32°C° 0.1 mm 1 m/s 716 mmHg 60%
11:00 +34°C° 0.1 mm 1 m/s 716 mmHg 52%
12:00 +35°C° 0.1 mm 1 m/s 715 mmHg 50%
13:00 +35°C° 0.1 mm 1 m/s 715 mmHg 47%
14:00 +36°C° 0.1 mm 1 m/s 714 mmHg 44%
15:00 +35°C° 0.1 mm 1 m/s 714 mmHg 48%
16:00 +34°C° 0.1 mm 1 m/s 713 mmHg 51%
17:00 +33°C° 0.1 mm 1 m/s 713 mmHg 54%
18:00 +31°C° 0.1 mm 1 m/s 714 mmHg 59%
19:00 +29°C° 0.1 mm 1 m/s 714 mmHg 64%
20:00 +27°C° 0.1 mm 1 m/s 715 mmHg 69%
21:00 +27°C° 0.3 mm 1 m/s 715 mmHg 72%
22:00 +26°C° 0.3 mm 1 m/s 715 mmHg 76%
23:00 +25°C° 0.3 mm 1 m/s 716 mmHg 79%

Après-demain, 7 Juillet, Mardi

Heure Température Précipitation Vent Pression Humidité
00:00 +25°C° 0.2 mm 1 m/s 716 mmHg 79%
01:00 +24°C° 0.2 mm 1 m/s 716 mmHg 79%
02:00 +24°C° 0.2 mm 1 m/s 715 mmHg 78%
03:00 +24°C° 0 mm 1 m/s 716 mmHg 78%
04:00 +24°C° 0 mm 1 m/s 716 mmHg 78%
05:00 +23°C° 0 mm 1 m/s 716 mmHg 78%
06:00 +25°C° 0 mm 1 m/s 716 mmHg 74%
07:00 +24°C° 0 mm 0 m/s 717 mmHg 70%
08:00 +26°C° 0 mm 0 m/s 717 mmHg 67%
09:00 +30°C° 0 mm 1 m/s 717 mmHg 61%
10:00 +31°C° 0 mm 1 m/s 717 mmHg 56%
11:00 +33°C° 0 mm 1 m/s 717 mmHg 51%
12:00 +34°C° 0 mm 1 m/s 716 mmHg 49%
13:00 +34°C° 0 mm 1 m/s 716 mmHg 48%
14:00 +35°C° 0 mm 1 m/s 715 mmHg 46%
15:00 +34°C° 0.2 mm 1 m/s 715 mmHg 49%
16:00 +33°C° 0.2 mm 1 m/s 714 mmHg 52%
17:00 +33°C° 0.2 mm 1 m/s 714 mmHg 56%
18:00 +31°C° 0.1 mm 1 m/s 715 mmHg 60%
19:00 +29°C° 0.1 mm 1 m/s 715 mmHg 65%
20:00 +27°C° 0.1 mm 1 m/s 716 mmHg 70%
21:00 +27°C° 0.2 mm 1 m/s 716 mmHg 72%
22:00 +26°C° 0.2 mm 1 m/s 716 mmHg 74%
23:00 +25°C° 0.2 mm 1 m/s 716 mmHg 77%

8 Juillet, Mercredi

Heure Température Précipitation Vent Pression Humidité
00:00 +25°C° 0 mm 1 m/s 716 mmHg 78%
01:00 +25°C° 0 mm 1 m/s 716 mmHg 80%
02:00 +22°C° 0 mm 0 m/s 716 mmHg 81%
03:00 +22°C° 0 mm 0 m/s 716 mmHg 81%
04:00 +22°C° 0 mm 0 m/s 716 mmHg 81%
05:00 +21°C° 0 mm 0 m/s 716 mmHg 81%
06:00 +23°C° 0 mm 0 m/s 716 mmHg 77%
07:00 +25°C° 0 mm 0 m/s 717 mmHg 72%
08:00 +27°C° 0 mm 0 m/s 717 mmHg 68%
09:00 +28°C° 0 mm 0 m/s 717 mmHg 62%
10:00 +32°C° 0 mm 1 m/s 717 mmHg 57%
11:00 +34°C° 0 mm 1 m/s 717 mmHg 51%
12:00 +35°C° 0.1 mm 1 m/s 716 mmHg 49%
13:00 +35°C° 0.1 mm 1 m/s 715 mmHg 46%
14:00 +36°C° 0.1 mm 1 m/s 715 mmHg 44%
15:00 +35°C° 0.2 mm 1 m/s 715 mmHg 48%
16:00 +32°C° 0.2 mm 0 m/s 714 mmHg 53%
17:00 +31°C° 0.2 mm 0 m/s 714 mmHg 57%
18:00 +31°C° 0.6 mm 1 m/s 715 mmHg 65%
19:00 +28°C° 0.6 mm 1 m/s 715 mmHg 72%
20:00 +26°C° 0.6 mm 1 m/s 715 mmHg 80%
21:00 +26°C° 1 mm 1 m/s 715 mmHg 82%
22:00 +26°C° 1 mm 1 m/s 716 mmHg 85%
23:00 +25°C° 1 mm 1 m/s 716 mmHg 88%

9 Juillet, Jeudi

Heure Température Précipitation Vent Pression Humidité
00:00 +25°C° 0.3 mm 1 m/s 716 mmHg 88%
01:00 +22°C° 0.3 mm 0 m/s 715 mmHg 89%
02:00 +22°C° 0.3 mm 0 m/s 715 mmHg 90%
03:00 +22°C° 0.7 mm 0 m/s 715 mmHg 90%
04:00 +24°C° 0.7 mm 1 m/s 715 mmHg 90%
05:00 +23°C° 0.7 mm 1 m/s 715 mmHg 91%
06:00 +25°C° 0.1 mm 1 m/s 716 mmHg 87%
07:00 +26°C° 0.1 mm 1 m/s 716 mmHg 83%
08:00 +26°C° 0.1 mm 0 m/s 716 mmHg 78%
09:00 +29°C° 0.1 mm 1 m/s 716 mmHg 73%
10:00 +30°C° 0.1 mm 1 m/s 716 mmHg 68%
11:00 +31°C° 0.1 mm 1 m/s 716 mmHg 62%
12:00 +32°C° 0.2 mm 1 m/s 716 mmHg 58%
13:00 +33°C° 0.2 mm 1 m/s 715 mmHg 55%
14:00 +34°C° 0.2 mm 1 m/s 715 mmHg 51%
15:00 +34°C° 0.2 mm 1 m/s 715 mmHg 54%
16:00 +33°C° 0.2 mm 1 m/s 714 mmHg 57%
17:00 +32°C° 0.2 mm 1 m/s 714 mmHg 61%
18:00 +30°C° 0.7 mm 1 m/s 715 mmHg 68%
19:00 +28°C° 0.7 mm 1 m/s 715 mmHg 75%
20:00 +26°C° 0.7 mm 2 m/s 716 mmHg 82%
21:00 +25°C° 0.8 mm 1 m/s 716 mmHg 84%
22:00 +25°C° 0.8 mm 1 m/s 717 mmHg 86%
23:00 +25°C° 0.8 mm 1 m/s 717 mmHg 88%

10 Juillet, Vendredi

Heure Température Précipitation Vent Pression Humidité
00:00 +24°C° 0.2 mm 1 m/s 717 mmHg 88%
01:00 +24°C° 0.2 mm 1 m/s 716 mmHg 89%
02:00 +24°C° 0.2 mm 1 m/s 716 mmHg 89%
03:00 +24°C° 0 mm 1 m/s 716 mmHg 89%
04:00 +23°C° 0 mm 1 m/s 716 mmHg 88%
05:00 +23°C° 0 mm 1 m/s 716 mmHg 88%
06:00 +23°C° 0 mm 0 m/s 716 mmHg 83%
07:00 +25°C° 0 mm 0 m/s 717 mmHg 78%
08:00 +26°C° 0 mm 0 m/s 717 mmHg 72%
09:00 +28°C° 0.1 mm 0 m/s 717 mmHg 66%
10:00 +30°C° 0.1 mm 0 m/s 717 mmHg 60%
11:00 +34°C° 0.1 mm 1 m/s 717 mmHg 53%
12:00 +34°C° 0.1 mm 1 m/s 716 mmHg 52%
13:00 +34°C° 0.1 mm 1 m/s 716 mmHg 51%
14:00 +34°C° 0.1 mm 1 m/s 715 mmHg 50%
15:00 +34°C° 0 mm 1 m/s 715 mmHg 54%
16:00 +31°C° 0 mm 0 m/s 715 mmHg 57%
17:00 +30°C° 0 mm 0 m/s 715 mmHg 61%
18:00 +31°C° 0 mm 1 m/s 716 mmHg 63%
19:00 +29°C° 0 mm 1 m/s 716 mmHg 65%
20:00 +28°C° 0 mm 1 m/s 716 mmHg 67%
21:00 +27°C° 0 mm 1 m/s 716 mmHg 66%
22:00 +27°C° 0 mm 1 m/s 717 mmHg 66%
23:00 +26°C° 0 mm 1 m/s 717 mmHg 65%
Voir plus